www.pogodaiklimat.ru

Погода и климат >> Архив погоды >> Россия >> Ненецкий АО >> Амдерма


АРХИВ ПОГОДЫ в Амдерме

Время (UTC), дата Ветер
(напр.,м/с)
 
Видим.   Явления Облачность Т
(С)
Тd
(С)
f
(%)
Тe
(С)
Тes
(С)
Комфортность P
(гПа)
Po
(гПа)
Тmin
(С)
Tmax
(С)
R
(мм)
R24
(мм)
S
(см)
09 16.08 В 7 10 км 9/3 300 м
[Sc Ac trans]
+10.7 +10.1 96 +7 +8 1005.2 999.1
12 16.08 В 6
{10}
4000 м ливневой дождь 10/10 300 м
[Cb cap]
+9.6 +9.6 100 +6 +6 1003.0 996.9
15 16.08 В 8-11
{12}
2000 м ливневой дождь 10/10 300 м
[Cb cap]
+8.2 +8.2 100 +3 +3 1000.0 993.9 +14.7 7
18 16.08 Ю 6
{11}
10 км {ливн. осадки} 8/3 600 м
[Sc Ac trans]
+12.1 +12.0 99 +9 +9 999.8 993.8
21 16.08 С 2 10 км 9/5 600 м
[Sc Ac trans]
+10.4 +10.4 100 +9 +9 999.9 993.8
00 17.08 В 1 10 км {ливн. осадки} 9/3 300 м
[Sc Ac trans]
+11.0 +11.0 100 +11 +11 1000.6 994.5
03 17.08 З 4 500 м туман ?/? +8.5 +8.5 100 +5 +5 1002.1 996.0 +8.2 2
06 17.08 СЗ 6-10
{10}
500 м туман {ливн. осадки} ?/? +6.9 +6.9 100 +2 +2 1004.9 998.7 +6.9
09 17.08 СЗ 7-13
{13}
4000 м слаб. морось {туман} 10/10 200 м
[St]
+6.6 +6.6 100 +1 +1 1008.5 1002.3
12 17.08 СЗ 6-12
{14}
4000 м дымка {туман} 10/10 200 м
[St]
+6.3 +6.3 100 +1 +1 1011.6 1005.4
15 17.08 СЗ 5-11
{12}
10 км 9/9 300 м
[Sc]
+6.3 +6.1 99 +2 +2 1013.9 1007.7 +8.5 0.4
18 17.08 З 5
{11}
10 км 9/8 600 м
[Sc Ac trans]
+7.4 +5.2 86 +3 +3 1015.9 1009.6
21 17.08 ЮЗ 4 10 км 8/0
[Ac trans Ci fib]
+4.4 +3.5 94 -0 -0 1017.2 1010.9
00 18.08 ЮЗ 4 4000 м дымка 8/0
[Ac trans Ci fib]
+3.7 +3.7 100 -1 -1 1019.0 1012.6
03 18.08 ЮЗ 3 10 км 10/10 300 м
[Sc]
+7.2 +7.2 100 +4 +4 1020.2 1014.0 +3.4
06 18.08 З 4 10 км 10/10 300 м
[Sc]
+7.2 +7.2 100 +3 +3 1021.1 1014.9
09 18.08 ЮЗ 6
{10}
10 км 10/10 300 м
[Sc]
+8.0 +7.3 95 +4 +4 1022.3 1016.0
12 18.08 З 5
{10}
10 км 10/10 300 м
[Sc]
+10.1 +8.7 91 +7 +7 1023.2 1016.9
15 18.08 ЮЗ 4 10 км 9/8 300 м
[Sc Ci fib]
+10.3 +9.0 92 +8 +8 1023.6 1017.4 +10.3
18 18.08 Ю 6 10 км 3/0
[Ac trans Ci fib]
+8.6 +7.9 95 +4 +4 1024.0 1017.7
21 18.08 Ю 7-10
{12}
10 км 8/8 300 м
[]
+9.1 +8.5 96 +5 +5 1024.3 1018.0
00 19.08 Ю 7-10
{11}
10 км 9/3 300 м
[Sc Ac trans Ci fib]
+10.1 +9.5 96 +6 +6 1025.0 1018.8
03 19.08 ЮЗ 8-10
{11}
10 км 9/4 600 м
[Sc Ac trans]
+11.5 +10.7 95 +8 +8 1025.4 1019.2 +8.1
06 19.08 ЮЗ 6-10
{12}
10 км 6/0
[Ac trans Ci fib]
+15.0 +12.3 84 +13 +15 1026.2 1020.1
09 19.08 ЮЗ 7-10
{11}
10 км 4/0
[Ac trans Ci fib]
+17.4 +13.5 78 +16 +18 1026.7 1020.6
12 19.08 З 5
{10}
10 км 1/0
[Ac trans]
+17.8 +14.1 79 +17 +19 1027.4 1021.3
15 19.08 З 2 10 км 1/0
[Ci fib]
+16.2 +12.3 78 +16 +16 1027.6 1021.5 +18.1
18 19.08 Ю 3 10 км 1/0
[Ci fib]
+10.3 +9.7 96 +8 +8 1027.8 1021.6
21 19.08 Ю 3 10 км 1/0
[Ci fib]
+9.5 +9.2 98 +7 +7 1027.6 1021.3
00 20.08 Ю 4 10 км 1/0
[Ci fib]
+9.3 +8.8 97 +6 +6 1027.5 1021.2
03 20.08 ЮВ 3 10 км ясно +14.6 +13.0 90 +14 +15 1027.1 1021.0 +9.0
06 20.08 Ю 5 10 км 1/1 300 м
[Cu hum]
+19.0 +15.9 82 +20 +23 1026.3 1020.2
09 20.08 ЮВ 7 10 км 3/1 300 м
[Cu hum Ci fib]
+20.9 +15.0 69 +24 +25 комфорт 1025.3 1019.3
12 20.08 Ю 7
{11}
10 км 3/1 600 м
[Sc Ci fib]
+21.5 +13.9 62 +24 +25 комфорт 1024.4 1018.4
15 20.08 ЮВ 4 10 км 1/0
[Ci fib]
+17.5 +14.4 82 +17 +17 1024.0 1018.0 +21.6
18 20.08 ЮВ 5 10 км 3/0
[Ac trans Ci fib]
+13.4 +11.5 88 +11 +11 1023.6 1017.5
21 20.08 Ю 6 10 км 3/0
[Ac trans Ci fib]
+11.7 +10.7 94 +9 +9 1023.1 1016.9
00 21.08 Ю 5 10 км 9/0
[Ac trans Cc]
+11.4 +9.8 90 +9 +9 1021.9 1015.7
03 21.08 Ю 6
{10}
10 км 9/0
[Ac trans Cc]
+14.4 +11.5 83 +12 +13 1020.5 1014.4 +10.2
06 21.08 Ю 9-11
{13}
10 км 9/0
[Ac trans Cc]
+17.8 +14.3 80 +17 +17 1019.1 1013.0
09 21.08 Ю 8-11
{13}
10 км 9/0
[Ac trans Ci]
+19.9 +14.5 71 +21 +22 комфорт 1017.9 1011.9
12 21.08 Ю 7-11
{13}
10 км в посл. час ливневой дождь 10/4 600 м
[Sc Ac und]
+15.8 +13.9 88 +14 +14 1016.7 1010.6
15 21.08 Ю 8-11
{14}
10 км {ливн. осадки} 10/9 600 м
[Sc Ac und]
+15.1 +13.9 93 +13 +13 1015.3 1009.2 +20.3 0.4
18 21.08 Ю 8-10
{12}
10 км {ливн. осадки} 10/10 300 м
[Sc]
+14.2 +13.8 97 +12 +12 1013.9 1007.8
21 21.08 Ю 6
{10}
10 км слаб. ливневой дождь 10/10 300 м
[Cb cap]
+13.6 +13.4 99 +11 +11 1012.2 1006.1
00 22.08 Ю 5 4000 м в посл. час ливневой дождь 10/10 300 м
[Sc]
+13.4 +13.4 100 +11 +11 1010.7 1004.7
03 22.08 ЮЗ 4 4000 м слаб. ливневой дождь 10/10 300 м
[Cb cap]
+12.0 +12.0 100 +10 +10 1010.1 1004.0 +12.0 2
06 22.08 З 6 4000 м слаб. ливневой дождь 10/10 300 м
[Cb cap]
+8.2 +8.2 100 +4 +4 1010.5 1004.3 +8.2
09 22.08 З 4 2000 м слаб. ливневой дождь 10/10 300 м
[Cb cap]
+8.1 +8.1 100 +5 +5 1012.1 1005.9
12 22.08 З 3 10 км {ливн. осадки, туман} 9/3 300 м
[Sc Ac trans Ci fib]
+9.5 +9.3 99 +7 +8 1013.2 1007.0
15 22.08 ЮЗ 2 10 км 9/3 300 м
[Sc Ac trans Ci fib]
+10.8 +10.2 96 +9 +9 1013.0 1006.9 +12.0 5
18 22.08 ЮЗ 5 500 м туман ?/? +8.7 +8.7 100 +5 +5 1012.6 1006.4
21 22.08 Ю 6 4000 м дымка {туман} 9/8 300 м
[Sc Ac trans]
+8.0 +8.0 100 +4 +4 1011.8 1005.6
00 23.08 ЮЗ 6 500 м туман ?/? +8.6 +8.6 100 +4 +4 1011.1 1004.9
03 23.08 ЮЗ 4 4000 м в посл. час туман 10/10 300 м
[St]
+9.3 +9.3 100 +6 +6 1010.4 1004.2 +7.7
06 23.08 С 2 200 м туман ?/? +8.4 +8.4 100 +6 +6 1010.0 1003.8

 

Местоположение метеостанции Амдерма (Ненецкий АО, Россия): широта 69.77 долгота 61.68 высота над уровнем моря 48 м.

В архиве по умолчанию представлена погода в Амдерме за последнюю неделю. Архивные данные за месяц целиком и за предыдущие месяцы, начиная с января 2011 года, Вы можете получить, выбрав интересующий диапазон дат из раскрывающегося списка и нажав кнопку "Ввод!".


*Определитесь, кто Вы:
робот инопланетянин человек

Внимание! Время в таблицах - всемирное. Для получения местного времени необходимо прибавить поправку, которая равна 3 ч.

Смотрите также архив погоды в соседних городах и на ближайших метеорологических станциях:

Погода на Мысе Белый Нос (Ненецкий АО, Россия) (60 км)
Погода в Имени Федорова (Ненецкий АО, Россия) (124 км)
Погода в Усть-Каре (Ненецкий АО, Россия) (139 км)
Погода в Варандее (Ненецкий АО, Россия) (179 км)
Погода в Марресале (Ямало-Ненецкий АО, Россия) (197 км)
Погода в Воркуте (Коми, Россия) (271 км)
Погода на Мысе Константиновском (Ненецкий АО, Россия) (279 км)
Погода в Хорей-Вере (Ненецкий АО, Россия) (300 км)
Погода в Елецкой (Коми, Россия) (318 км)
Погода в Ходоварихе (Ненецкий АО, Россия) (325 км)

Пояснения к столбцам:

Ветер - указаны скорость ветра в м/с - средняя за 10 мин, порывы в срок и между сроками (в фигурных скобках) и направление, откуда дует ветер: С - северный, СВ - северо-восточный, В - восточный, ЮВ - юго-восточный, Ю - южный, ЮЗ - юго-западный, З - западный, СЗ - северо-западный.
Видимость - горизонтальная дальность видимости в метрах или километрах. При видимости от 1 до 10 км при отсутствии осадков обычно наблюдается дымка, при ухудшении видимости до 1 км и менее - туман. В сухую погоду видимость может ухудшаться дымом, пылью или мглою.
Явления - указаны атмосферные явления, наблюдавшиеся в срок или в последний час перед сроком; фигурными скобками обозначены явления, наблюдавшиеся между сроками (за 1-3 часа до срока); квадратными скобками обозначены град или гололедные отложения с указанием их диаметра в мм.
Облачность - указаны через наклонную черту общая и нижняя облачность в баллах и высота нижней границы облаков в метрах; квадратными скобками обозначены формы облаков: Ci - перистые, Cs - перисто-слоистые, Cc - перисто-кучевые, Ac - высококучевые, As - высокослоистые, Sc - слоисто-кучевые, Ns - слоисто-дождевые, Cu - кучевые, Cb - кучево-дождевые. Подробнее классификацию облаков см. в Атласе облаков (PDF).
T - Температура воздуха - температура, измеренная на высоте 2 м над землей.
Td - Температура точки росы - температура, при понижении до которой содержащийся в воздухе водяной пар достигнет насыщения.
f - Относительная влажность воздуха - влажноcть воздуха, измеренная на высоте 2 м над землей.
Te - Эффективная температура - температура, которую ощущает одетый по сезону человек в тени. Характеристика душности погоды. При расчете учитывается влияние влажности воздуха и скорости ветра на теплоощущения человека.
Tes - Эффективная температура на солнце - температура, которую ощущает человек, с поправкой на солнечный нагрев. Характеристика знойности погоды. Зависит от высоты солнца над горизонтом, облачности и скорости ветра. Ночью, в пасмурную погоду, а также при ветре 12 м/с и более поправка равна нулю.
P - Атмосферное давление - приведенное к уровню моря атмосферное давление.
Po - Атмосферное давление - измеренное на уровне метеостанции атмосферное давление.
Tmin - Минимальная температура - минимум температуры воздуха на высоте 2 м над землей.
Tmax - Максимальная температура - максимум температуры воздуха на высоте 2 м над землей.
R - Количество осадков - Количество выпавших осадков за период времени, мм. При наведении курсора мыши на число - период времени, за который выпало указанное количество осадков.
R24 - Количество осадков - Количество выпавших осадков за 24 часа, мм.
S - Снежный покров - Высота снежного покрова, см. При наведении курсора мыши на число - состояние снежного покрова и степень покрытия местности в баллах.